TimeEDT,TemperatureF,Dew PointF,Humidity,Sea Level PressureIn,VisibilityMPH,Wind Direction,Wind SpeedMPH,Gust SpeedMPH,PrecipitationIn,Events,Conditions,WindDirDegrees,DateUTC
12:51 AM,57.9,50.0,75,29.99,10.0,SE,9.2,-,N/A,,Clear,140,2012-10-27 04:51:00
1:51 AM,53.1,48.0,83,29.98,10.0,SSE,3.5,-,N/A,,Clear,160,2012-10-27 05:51:00
2:51 AM,52.0,46.9,83,29.96,10.0,Calm,Calm,-,N/A,,Clear,0,2012-10-27 06:51:00
3:51 AM,55.9,48.9,77,29.94,10.0,ENE,3.5,-,N/A,,Clear,70,2012-10-27 07:51:00
4:51 AM,48.0,45.0,89,29.95,9.0,Calm,Calm,-,N/A,,Clear,0,2012-10-27 08:51:00
5:51 AM,46.9,45.0,93,29.96,7.0,Calm,Calm,-,N/A,,Scattered Clouds,0,2012-10-27 09:51:00
6:00 AM,46.4,44.6,93,29.96,7.0,Calm,Calm,-,N/A,,Mostly Cloudy,0,2012-10-27 10:00:00
6:51 AM,50.0,48.0,93,29.96,9.0,Calm,Calm,-,N/A,,Overcast,0,2012-10-27 10:51:00
7:51 AM,52.0,48.9,89,29.97,9.0,Calm,Calm,-,N/A,,Overcast,0,2012-10-27 11:51:00
8:06 AM,53.6,48.2,82,29.98,8.0,Calm,Calm,-,N/A,,Overcast,0,2012-10-27 12:06:00
8:30 AM,53.6,50.0,88,29.98,7.0,Calm,Calm,-,N/A,,Overcast,0,2012-10-27 12:30:00
8:51 AM,53.1,50.0,89,29.99,7.0,Calm,Calm,-,N/A,,Overcast,0,2012-10-27 12:51:00
9:18 AM,55.4,50.0,82,29.99,9.0,Calm,Calm,-,N/A,,Overcast,0,2012-10-27 13:18:00
9:51 AM,59.0,50.0,72,29.98,10.0,Calm,Calm,-,N/A,,Scattered Clouds,0,2012-10-27 13:51:00
10:51 AM,63.0,52.0,67,29.96,10.0,NNW,3.5,-,N/A,,Overcast,340,2012-10-27 14:51:00
11:51 AM,63.0,52.0,67,29.96,10.0,West,3.5,-,N/A,,Overcast,270,2012-10-27 15:51:00
12:51 PM,64.9,52.0,63,29.94,10.0,North,3.5,-,N/A,,Overcast,360,2012-10-27 16:51:00
1:51 PM,64.0,52.0,65,29.92,10.0,NW,11.5,-,N/A,,Overcast,320,2012-10-27 17:51:00
2:51 PM,61.0,51.1,70,29.92,10.0,NNW,10.4,-,N/A,,Overcast,330,2012-10-27 18:51:00
3:43 PM,60.8,51.8,72,29.92,10.0,NW,11.5,-,N/A,,Overcast,310,2012-10-27 19:43:00
3:51 PM,60.1,51.1,72,29.92,10.0,NW,10.4,-,N/A,,Overcast,310,2012-10-27 19:51:00
4:49 PM,57.2,50.0,77,29.93,9.0,NW,9.2,16.1,N/A,,Overcast,310,2012-10-27 20:49:00
4:51 PM,57.0,50.0,77,29.95,9.0,NW,11.5,16.1,N/A,,Overcast,310,2012-10-27 20:51:00
5:34 PM,53.6,48.2,82,29.95,5.0,NW,10.4,-,N/A,,Overcast,320,2012-10-27 21:34:00
5:51 PM,52.0,48.9,89,29.97,5.0,NNW,8.1,-,N/A,,Overcast,340,2012-10-27 21:51:00
6:51 PM,50.0,48.0,93,29.99,6.0,NW,4.6,-,N/A,,Overcast,320,2012-10-27 22:51:00
7:51 PM,48.0,46.0,93,29.99,4.0,NNW,5.8,-,0.00,,Overcast,340,2012-10-27 23:51:00
8:39 PM,46.4,46.4,100,29.97,2.5,WNW,5.8,-,0.00,Rain,Light Rain,300,2012-10-28 00:39:00
8:46 PM,46.4,46.4,100,29.96,2.5,WNW,4.6,-,0.00,,Overcast,300,2012-10-28 00:46:00
8:51 PM,46.9,46.0,97,29.99,3.0,NW,3.5,-,0.00,,Overcast,310,2012-10-28 00:51:00
9:29 PM,46.4,44.6,93,29.97,2.5,WNW,5.8,-,0.00,Rain,Light Rain,300,2012-10-28 01:29:00
9:41 PM,46.4,44.6,93,29.96,3.0,NW,3.5,-,0.00,Rain,Light Rain,310,2012-10-28 01:41:00
9:51 PM,46.9,45.0,93,29.98,3.0,NW,3.5,-,0.00,Rain,Light Rain,320,2012-10-28 01:51:00
10:23 PM,46.4,44.6,93,29.96,5.0,NW,3.5,-,0.00,,Overcast,320,2012-10-28 02:23:00
10:51 PM,46.9,44.1,90,29.98,7.0,NW,5.8,-,0.00,,Overcast,320,2012-10-28 02:51:00
11:01 PM,46.4,44.6,93,29.97,8.0,NNW,5.8,-,N/A,,Overcast,330,2012-10-28 03:01:00
11:15 PM,46.4,44.6,93,29.97,7.0,Variable,3.5,-,N/A,,Overcast,0,2012-10-28 03:15:00
11:51 PM,46.0,44.1,93,29.97,4.0,Calm,Calm,-,0.00,Rain,Light Rain,0,2012-10-28 03:51:00